When you browse on this site, cookies collect data to enhance your experience and personalize the content and advertising you see.
Visit our Privacy Policy to learn more. By continuing to use the site, you agree to this use of cookies and data.
  • In Austria
  • List of Countries
  • For 7 days
  • Water Temperature
  • Weather Map
  • News
  • Weather Widgets
  • user-avatar
    Login

    Hourly Weather Nayda

    Today, 3 June, Wednesday

    Time Temperature Precipitation Wind Pressure Humidity
    00:00 +7°C° 0 mm 3 mps 741 mmHg 96%
    01:00 +7°C° 0 mm 3 mps 742 mmHg 97%
    02:00 +7°C° 0 mm 3 mps 742 mmHg 98%
    03:00 +5°C° 0 mm 3 mps 742 mmHg 98%
    04:00 +5°C° 0 mm 3 mps 741 mmHg 97%
    05:00 +5°C° 0 mm 3 mps 741 mmHg 97%
    06:00 +7°C° 0.1 mm 3 mps 741 mmHg 96%
    07:00 +8°C° 0.1 mm 3 mps 741 mmHg 95%
    08:00 +9°C° 0 mm 3 mps 742 mmHg 94%
    09:00 +10°C° 0.5 mm 3 mps 741 mmHg 91%
    10:00 +10°C° 0.5 mm 4 mps 741 mmHg 88%
    11:00 +11°C° 0.5 mm 4 mps 741 mmHg 85%
    12:00 +12°C° 0.5 mm 4 mps 741 mmHg 81%
    13:00 +13°C° 0.5 mm 4 mps 741 mmHg 78%
    14:00 +13°C° 0 mm 4 mps 741 mmHg 76%
    15:00 +13°C° 0.5 mm 3 mps 741 mmHg 77%
    16:00 +13°C° 0.5 mm 3 mps 741 mmHg 78%
    17:00 +13°C° 0.5 mm 3 mps 741 mmHg 80%
    18:00 +12°C° 0.2 mm 3 mps 741 mmHg 84%
    19:00 +12°C° 0.2 mm 2 mps 741 mmHg 88%
    20:00 +10°C° 0.2 mm 2 mps 741 mmHg 92%
    21:00 +9°C° 0 mm 2 mps 741 mmHg 93%
    22:00 +8°C° 0 mm 2 mps 741 mmHg 94%
    23:00 +7°C° 0 mm 2 mps 741 mmHg 96%

    Tomorrow, 4 June, Thursday

    Time Temperature Precipitation Wind Pressure Humidity
    00:00 +7°C° 0 mm 2 mps 741 mmHg 96%
    01:00 +6°C° 0 mm 2 mps 741 mmHg 97%
    02:00 +6°C° 0 mm 2 mps 741 mmHg 97%
    03:00 +6°C° 0 mm 2 mps 741 mmHg 98%
    04:00 +6°C° 0 mm 2 mps 740 mmHg 98%
    05:00 +6°C° 0 mm 2 mps 740 mmHg 98%
    06:00 +8°C° 0 mm 2 mps 740 mmHg 94%
    07:00 +10°C° 0 mm 2 mps 740 mmHg 90%
    08:00 +13°C° 0 mm 2 mps 740 mmHg 86%
    09:00 +13°C° 0.5 mm 3 mps 740 mmHg 83%
    10:00 +14°C° 0.5 mm 3 mps 740 mmHg 80%
    11:00 +16°C° 0.5 mm 3 mps 740 mmHg 77%
    12:00 +15°C° 0.9 mm 4 mps 740 mmHg 76%
    13:00 +17°C° 0.9 mm 4 mps 740 mmHg 75%
    14:00 +17°C° 0.9 mm 4 mps 740 mmHg 73%
    15:00 +17°C° 0.4 mm 4 mps 740 mmHg 74%
    16:00 +17°C° 0.4 mm 3 mps 740 mmHg 74%
    17:00 +17°C° 0.4 mm 3 mps 740 mmHg 74%
    18:00 +14°C° 0.3 mm 3 mps 740 mmHg 79%
    19:00 +14°C° 0.3 mm 2 mps 740 mmHg 84%
    20:00 +13°C° 0.3 mm 2 mps 740 mmHg 89%
    21:00 +12°C° 0 mm 2 mps 740 mmHg 90%
    22:00 +10°C° 0 mm 2 mps 740 mmHg 92%
    23:00 +10°C° 0 mm 2 mps 740 mmHg 93%

    Day after tomorrow, 5 June, Friday

    Time Temperature Precipitation Wind Pressure Humidity
    00:00 +9°C° 0 mm 2 mps 740 mmHg 94%
    01:00 +9°C° 0 mm 2 mps 740 mmHg 94%
    02:00 +10°C° 0 mm 1 mps 740 mmHg 95%
    03:00 +10°C° 0 mm 1 mps 740 mmHg 95%
    04:00 +9°C° 0 mm 2 mps 739 mmHg 96%
    05:00 +9°C° 0 mm 2 mps 739 mmHg 96%
    06:00 +12°C° 0 mm 2 mps 739 mmHg 92%
    07:00 +14°C° 0 mm 2 mps 740 mmHg 88%
    08:00 +16°C° 0 mm 2 mps 740 mmHg 84%
    09:00 +17°C° 0.1 mm 3 mps 740 mmHg 82%
    10:00 +19°C° 0.1 mm 4 mps 740 mmHg 80%
    11:00 +20°C° 0.1 mm 4 mps 740 mmHg 78%
    12:00 +19°C° 0.4 mm 4 mps 740 mmHg 81%
    13:00 +19°C° 0.4 mm 4 mps 740 mmHg 85%
    14:00 +18°C° 0.4 mm 4 mps 740 mmHg 88%
    15:00 +19°C° 0 mm 4 mps 740 mmHg 83%
    16:00 +20°C° 0 mm 4 mps 741 mmHg 78%
    17:00 +21°C° 0 mm 4 mps 741 mmHg 73%
    18:00 +20°C° 0.3 mm 4 mps 741 mmHg 78%
    19:00 +19°C° 0.3 mm 4 mps 741 mmHg 84%
    20:00 +18°C° 0.3 mm 3 mps 741 mmHg 89%
    21:00 +18°C° 0.1 mm 3 mps 741 mmHg 91%
    22:00 +17°C° 0.1 mm 3 mps 742 mmHg 93%
    23:00 +16°C° 0.1 mm 3 mps 742 mmHg 95%

    6 June, Saturday

    Time Temperature Precipitation Wind Pressure Humidity
    00:00 +16°C° 0 mm 3 mps 742 mmHg 95%
    01:00 +16°C° 0 mm 3 mps 742 mmHg 95%
    02:00 +14°C° 0 mm 3 mps 742 mmHg 95%
    03:00 +14°C° 0 mm 3 mps 742 mmHg 94%
    04:00 +16°C° 0 mm 3 mps 742 mmHg 94%
    05:00 +16°C° 0 mm 3 mps 742 mmHg 94%
    06:00 +17°C° 0 mm 3 mps 742 mmHg 91%
    07:00 +18°C° 0 mm 3 mps 743 mmHg 88%
    08:00 +19°C° 0 mm 4 mps 743 mmHg 85%
    09:00 +18°C° 0.2 mm 3 mps 744 mmHg 88%
    10:00 +18°C° 0.2 mm 3 mps 744 mmHg 90%
    11:00 +18°C° 0.2 mm 2 mps 744 mmHg 93%
    12:00 +19°C° 0 mm 2 mps 745 mmHg 88%
    13:00 +20°C° 0 mm 3 mps 745 mmHg 84%
    14:00 +21°C° 0 mm 3 mps 745 mmHg 79%
    15:00 +21°C° 0.5 mm 3 mps 745 mmHg 80%
    16:00 +21°C° 0.5 mm 2 mps 746 mmHg 81%
    17:00 +21°C° 0.5 mm 2 mps 746 mmHg 82%
    18:00 +20°C° 0.2 mm 2 mps 746 mmHg 85%
    19:00 +20°C° 0.2 mm 1 mps 746 mmHg 88%
    20:00 +19°C° 0.2 mm 1 mps 747 mmHg 90%
    21:00 +18°C° 0 mm 1 mps 747 mmHg 90%
    22:00 +16°C° 0 mm 0 mps 748 mmHg 91%
    23:00 +15°C° 0 mm 0 mps 748 mmHg 91%

    7 June, Sunday

    Time Temperature Precipitation Wind Pressure Humidity
    00:00 +16°C° 0 mm 1 mps 748 mmHg 91%
    01:00 +16°C° 0 mm 1 mps 748 mmHg 91%
    02:00 +16°C° 0 mm 1 mps 749 mmHg 90%
    03:00 +16°C° 0.1 mm 1 mps 749 mmHg 92%
    04:00 +16°C° 0.1 mm 1 mps 749 mmHg 93%
    05:00 +16°C° 0.1 mm 2 mps 749 mmHg 94%
    06:00 +17°C° 0 mm 2 mps 749 mmHg 91%
    07:00 +19°C° 0 mm 3 mps 749 mmHg 88%
    08:00 +20°C° 0 mm 3 mps 749 mmHg 84%
    09:00 +21°C° 0.1 mm 4 mps 749 mmHg 79%
    10:00 +23°C° 0.1 mm 4 mps 749 mmHg 73%
    11:00 +26°C° 0.1 mm 5 mps 749 mmHg 68%
    12:00 +27°C° 0.3 mm 5 mps 749 mmHg 64%
    13:00 +27°C° 0.3 mm 5 mps 748 mmHg 60%
    14:00 +28°C° 0.3 mm 5 mps 748 mmHg 56%
    15:00 +28°C° 0.2 mm 5 mps 748 mmHg 58%
    16:00 +27°C° 0.2 mm 4 mps 748 mmHg 61%
    17:00 +27°C° 0.2 mm 4 mps 748 mmHg 63%
    18:00 +25°C° 0 mm 3 mps 748 mmHg 69%
    19:00 +22°C° 0 mm 3 mps 748 mmHg 74%
    20:00 +21°C° 0 mm 2 mps 748 mmHg 80%
    21:00 +20°C° 0 mm 2 mps 748 mmHg 83%
    22:00 +19°C° 0 mm 2 mps 748 mmHg 86%
    23:00 +18°C° 0 mm 2 mps 748 mmHg 88%

    8 June, Monday

    Time Temperature Precipitation Wind Pressure Humidity
    00:00 +18°C° 0 mm 2 mps 748 mmHg 88%
    01:00 +18°C° 0 mm 3 mps 748 mmHg 89%
    02:00 +18°C° 0 mm 3 mps 748 mmHg 89%
    03:00 +18°C° 0 mm 3 mps 748 mmHg 91%
    04:00 +17°C° 0 mm 2 mps 748 mmHg 92%
    05:00 +17°C° 0 mm 2 mps 747 mmHg 94%
    06:00 +19°C° 0.2 mm 3 mps 747 mmHg 90%
    07:00 +21°C° 0.2 mm 3 mps 747 mmHg 85%
    08:00 +22°C° 0.2 mm 4 mps 747 mmHg 81%
    09:00 +25°C° 0.4 mm 4 mps 747 mmHg 75%
    10:00 +26°C° 0.4 mm 4 mps 747 mmHg 69%
    11:00 +27°C° 0.4 mm 4 mps 747 mmHg 62%
    12:00 +27°C° 0.5 mm 4 mps 746 mmHg 64%
    13:00 +27°C° 0.5 mm 4 mps 746 mmHg 65%
    14:00 +27°C° 0.5 mm 4 mps 746 mmHg 67%
    15:00 +27°C° 1.1 mm 4 mps 746 mmHg 71%
    16:00 +26°C° 1.1 mm 3 mps 746 mmHg 76%
    17:00 +25°C° 1.1 mm 3 mps 746 mmHg 80%
    18:00 +24°C° 0.3 mm 3 mps 746 mmHg 84%
    19:00 +22°C° 0.3 mm 3 mps 746 mmHg 87%
    20:00 +21°C° 0.3 mm 2 mps 746 mmHg 91%
    21:00 +20°C° 0.2 mm 2 mps 746 mmHg 92%
    22:00 +19°C° 0.2 mm 2 mps 746 mmHg 94%
    23:00 +19°C° 0.2 mm 2 mps 747 mmHg 95%
    Show more